TimeEST,TemperatureF,Dew PointF,Humidity,Sea Level PressureIn,VisibilityMPH,Wind Direction,Wind SpeedMPH,Gust SpeedMPH,PrecipitationIn,Events,Conditions,WindDirDegrees,DateUTC
12:52 AM,52.0,52.0,100,30.19,10.0,Calm,Calm,-,N/A,,Scattered Clouds,0,2012-11-27 05:52:00
1:52 AM,53.1,52.0,96,30.18,10.0,Calm,Calm,-,N/A,,Scattered Clouds,0,2012-11-27 06:52:00
2:52 AM,52.0,52.0,100,30.18,7.0,Calm,Calm,-,N/A,,Clear,0,2012-11-27 07:52:00
3:52 AM,52.0,51.1,97,30.17,10.0,Calm,Calm,-,N/A,,Clear,0,2012-11-27 08:52:00
4:52 AM,52.0,51.1,97,30.17,6.0,Calm,Calm,-,N/A,,Clear,0,2012-11-27 09:52:00
5:52 AM,54.0,48.9,83,30.18,10.0,Calm,Calm,-,N/A,,Overcast,0,2012-11-27 10:52:00
6:52 AM,55.9,50.0,80,30.18,10.0,Calm,Calm,-,N/A,,Mostly Cloudy,0,2012-11-27 11:52:00
7:52 AM,59.0,53.1,81,30.18,10.0,SE,3.5,-,N/A,,Mostly Cloudy,130,2012-11-27 12:52:00
8:52 AM,66.0,55.9,70,30.18,10.0,South,5.8,-,N/A,,Mostly Cloudy,180,2012-11-27 13:52:00
9:52 AM,69.1,57.0,65,30.19,10.0,South,9.2,-,N/A,,Mostly Cloudy,190,2012-11-27 14:52:00
10:52 AM,75.0,55.9,51,30.18,10.0,SSW,12.7,-,N/A,,Mostly Cloudy,200,2012-11-27 15:52:00
11:52 AM,77.0,54.0,45,30.16,10.0,SW,15.0,-,N/A,,Mostly Cloudy,220,2012-11-27 16:52:00
12:52 PM,77.0,55.0,47,30.13,10.0,WSW,8.1,-,N/A,,Mostly Cloudy,240,2012-11-27 17:52:00
1:52 PM,77.0,53.1,43,30.10,10.0,SW,9.2,16.1,N/A,,Mostly Cloudy,230,2012-11-27 18:52:00
2:52 PM,75.9,53.1,45,30.09,10.0,WSW,4.6,-,N/A,,Mostly Cloudy,250,2012-11-27 19:52:00
3:52 PM,75.0,55.0,50,30.08,10.0,Calm,Calm,-,N/A,,Mostly Cloudy,0,2012-11-27 20:52:00
4:52 PM,73.0,60.1,64,30.09,10.0,Calm,Calm,-,N/A,,Mostly Cloudy,0,2012-11-27 21:52:00
5:52 PM,64.9,61.0,87,30.11,10.0,NNE,5.8,-,N/A,,Mostly Cloudy,30,2012-11-27 22:52:00
6:52 PM,64.0,61.0,90,30.14,10.0,Calm,Calm,-,N/A,,Overcast,0,2012-11-27 23:52:00
7:52 PM,64.0,61.0,90,30.16,10.0,North,10.4,18.4,N/A,,Overcast,10,2012-11-28 00:52:00
8:52 PM,62.1,57.0,84,30.17,10.0,NNE,10.4,-,N/A,,Overcast,20,2012-11-28 01:52:00
9:52 PM,60.1,55.9,86,30.16,10.0,North,8.1,-,N/A,,Scattered Clouds,10,2012-11-28 02:52:00
10:52 PM,60.1,55.0,83,30.17,10.0,NNE,4.6,-,N/A,,Mostly Cloudy,20,2012-11-28 03:52:00
11:52 PM,60.1,55.9,86,30.16,10.0,Calm,Calm,-,0.00,,Overcast,0,2012-11-28 04:52:00